Location: *
(37.9500°N, 27.3666°E)
Time: 06:29:55
(UTC+00:00)

Cosmos 614 Rocket - Pass Details

Date: 04 June 2022
Orbit: 732 x 764 km, 74.1° (Epoch: 03 July)

Event Time Altitude Azimuth Distance (km) Brightness Sun altitude
Rises 22:11:18 0° 349° (N) 3,225 8.4 -29.5°
Reaches altitude 10° 22:13:49 10° 357° (N) 2,299 7.4 -29.5°
Maximum altitude 22:18:42 39° 66° (ENE) 1,128 5.0 -29.5°
Enters shadow 22:18:48 39° 69° (ENE) 1,128 4.9 -29.5°
